Location: Riverton
(43.0250°N, 108.3790°W)
Time: 02:57:52
(UTC-06:00)

Amateur Radio Satellites - All Passes

Search period start: 29 August 2016 02:27
Search period end: 30 August 2016 02:27
Location: Riverton, 43.0250°N, 108.3790°W

Satellite Date Start Highest point End Downlink Frequencies (MHz)
Time Altitude Azimuth
BUGSAT 1 29 Aug 02:51:42 02:54:04 15° 297° (WNW) 02:56:24 437.445
ITUPSAT 1 29 Aug 03:12:38 03:17:18 57° 259° (W) 03:22:01 437.325
RS-15 29 Aug 03:17:39 03:29:07 59° 314° (NW) 03:41:13 29.354- 29.394
ITAMSAT 1 29 Aug 03:31:29 03:35:57 29° 96° (E) 03:40:23 435.822/435.867
Cosmos 2491 29 Aug 03:33:57 03:37:29 13° 53° (NE) 03:41:00 435.465 / 435.565
JAS-2 29 Aug 03:35:14 03:39:17 17° 303° (WNW) 03:43:35 435.910
Gurwin Techsat 1B 29 Aug 03:35:51 03:41:12 81° 286° (WNW) 03:46:31 435.225
KKS-1 29 Aug 03:45:11 03:49:20 38° 69° (ENE) 03:53:29 437.445
SWISSCUBE 29 Aug 03:45:57 03:49:48 24° 266° (W) 03:53:39 437.505
AO-7 29 Aug 03:50:46 03:57:26 26° 94° (E) 04:04:02 29.400- 29.500
Oscar 19 29 Aug 03:53:30 03:57:52 28° 295° (WNW) 04:02:13 437.125/150
PHONESAT 2.4 29 Aug 03:54:32 03:57:27 51° 178° (S) 04:00:23 2401.200-2431.200
MOZHAYETS 4 29 Aug 04:01:35 04:06:07 70° 75° (ENE) 04:10:40
BEESAT 29 Aug 04:03:36 04:06:52 18° 268° (W) 04:10:11 436.000
STARS 29 Aug 04:16:51 04:20:59 40° 70° (ENE) 04:25:09 437.465
YUBILEINY 29 Aug 04:51:52 04:55:19 13° 72° (ENE) 04:58:46 435.215
ITAMSAT 1 29 Aug 05:10:43 05:15:27 37° 293° (WNW) 05:20:10 435.822/435.867
Gurwin Techsat 1B 29 Aug 05:18:18 05:20:17 12° 304° (WNW) 05:22:17 435.225
KKS-1 29 Aug 05:22:33 05:26:00 22° 266° (W) 05:29:29 437.445
CUBESAT XI-V 29 Aug 05:25:47 05:30:21 68° 74° (ENE) 05:34:59 437.345
Cosmos 2491 29 Aug 05:27:46 05:36:30 61° 77° (ENE) 05:45:13 435.465 / 435.565
PHONESAT 2.4 29 Aug 05:30:48 05:33:35 34° 195° (SSW) 05:36:19 2401.200-2431.200
RS-15 29 Aug 05:35:06 05:45:01 28° 345° (NNW) 05:55:12 29.354- 29.394
AO-85 29 Aug 05:39:00 05:44:17 69° 121° (ESE) 05:49:16 145.980
MOZHAYETS 4 29 Aug 05:42:04 05:43:46 12° 271° (W) 05:45:28
AO-7 29 Aug 05:42:35 05:50:52 72° 292° (WNW) 05:59:04 29.400- 29.500
STARS 29 Aug 05:54:14 05:57:30 20° 267° (W) 06:00:47 437.465
BRITE-PL 29 Aug 05:56:24 06:00:50 23° 91° (E) 06:05:10 437.365/2234.400
Cosmos 2504 29 Aug 06:01:19 06:03:42 11° 75° (ENE) 06:06:04 435.465 / 435.565
Cubesat XI-IV 29 Aug 06:13:30 06:15:37 12° 88° (E) 06:17:43 437.490
NOAA 15 29 Aug 06:19:30 06:23:12 19° 92° (E) 06:26:51 137.62
CUTE-I 29 Aug 06:23:55 06:27:07 16° 90° (E) 06:30:19 437.470
HORYU 2 29 Aug 06:33:33 06:37:59 82° 286° (WNW) 06:42:23 437.375
YUBILEINY 29 Aug 06:41:37 06:50:21 69° 93° (E) 06:59:06 435.215
SO-50 29 Aug 06:52:16 06:54:58 15° 35° (NE) 06:57:37 436.795
DOVE 4 29 Aug 07:01:19 07:04:32 17° 89° (E) 07:07:37 437.250
GOMX 1 29 Aug 07:01:50 07:06:53 39° 96° (E) 07:11:41 467.674
CUBESAT XI-V 29 Aug 07:06:15 07:08:13 13° 271° (W) 07:10:13 437.345
PHONESAT 2.4 29 Aug 07:08:39 07:09:23 11° 210° (SSW) 07:10:07 2401.200-2431.200
NOAA 18 29 Aug 07:16:36 07:21:46 42° 99° (E) 07:26:54 137.9125
AO-85 29 Aug 07:21:10 07:25:11 22° 318° (NW) 07:29:01 145.980
STRAND 1 29 Aug 07:25:18 07:30:21 66° 73° (ENE) 07:35:25 437.568
Cosmos 2491 29 Aug 07:25:26 07:32:46 31° 277° (W) 07:40:08 435.465 / 435.565
BRITE-PL 29 Aug 07:34:01 07:39:35 54° 289° (WNW) 07:45:00 437.365/2234.400
AO-7 29 Aug 07:37:07 07:42:13 18° 314° (NW) 07:47:19 29.400- 29.500
LilacSat-2 29 Aug 07:38:11 07:41:58 86° 284° (WNW) 07:45:44 437.200
Cosmos 2504 29 Aug 07:47:20 07:55:39 67° 94° (E) 08:03:24 435.465 / 435.565
Cubesat XI-IV 29 Aug 07:51:00 07:56:21 85° 287° (WNW) 08:01:40 437.490
RS-15 29 Aug 07:52:21 08:02:47 30° 20° (NNE) 08:13:15 29.354- 29.394
HO-68 29 Aug 07:57:23 08:02:22 20° 90° (E) 08:07:18 435.675
NOAA 15 29 Aug 07:58:07 08:03:20 58° 289° (WNW) 08:08:33 137.62
CUTE-I 29 Aug 08:02:22 08:07:39 67° 288° (WNW) 08:12:55 437.470
SO-50 29 Aug 08:31:34 08:36:13 81° 57° (ENE) 08:40:42 436.795
DOVE 4 29 Aug 08:37:42 08:42:39 56° 288° (WNW) 08:47:18 437.250
GOMX 1 29 Aug 08:40:09 08:44:45 29° 294° (WNW) 08:49:10 467.674
YUBILEINY 29 Aug 08:40:37 08:47:54 28° 294° (WNW) 08:55:13 435.215
ISS 29 Aug 08:42:54 08:46:04 47° 141° (SE) 08:49:15 145.825
SEEDS 29 Aug 08:55:36 08:59:27 33° 97° (E) 09:03:16 437.485
NOAA 18 29 Aug 08:57:38 09:02:14 28° 296° (WNW) 09:06:49 137.9125
CINEMA 3 29 Aug 09:05:42 09:10:14 82° 101° (E) 09:14:33 145.822/145.860
UWE-3 29 Aug 09:06:56 09:09:19 15° 91° (E) 09:11:41 435.000/436.395/437.385
STRAND 1 29 Aug 09:07:01 09:09:59 15° 270° (W) 09:12:57 437.568
PRISM 29 Aug 09:09:58 09:14:04 89° 75° (ENE) 09:18:14 437.425
CUBEBUG 2 29 Aug 09:12:11 09:15:43 25° 95° (E) 09:19:11 437.445
ZACube-1 29 Aug 09:18:03 09:19:45 12° 90° (E) 09:21:26 437.345
CANX-2 29 Aug 09:20:31 09:24:46 77° 284° (WNW) 09:29:01 2200.000
AAUSAT CUBESAT 2 29 Aug 09:21:36 09:25:27 35° 97° (E) 09:29:17 437.432
CUSAT 1 29 Aug 09:25:43 09:31:04 26° 70° (ENE) 09:37:08 437.405
CUTE 1.7 + AOD 2 29 Aug 09:26:16 09:30:31 77° 285° (WNW) 09:34:45 437.475
COMPASS 1 29 Aug 09:31:16 09:35:25 58° 101° (E) 09:39:32 437.405
Cubesat XI-IV 29 Aug 09:33:20 09:35:36 13° 303° (WNW) 09:37:51 437.490
ANTELSAT 29 Aug 09:33:25 09:36:33 19° 65° (ENE) 09:39:39 437.575/2403.000
Cosmos 2504 29 Aug 09:42:51 09:49:34 27° 292° (WNW) 09:55:59 435.465 / 435.565
HO-68 29 Aug 09:43:38 09:50:49 79° 289° (WNW) 09:57:57 435.675
AIST 1 29 Aug 09:44:34 09:48:55 82° 95° (E) 09:53:19
BEESAT 2 29 Aug 09:48:54 09:52:21 30° 115° (ESE) 09:55:51 435.950
TIGRISAT 29 Aug 10:02:41 10:06:47 33° 70° (ENE) 10:10:49 435.000
BEESAT 3 29 Aug 10:02:48 10:06:42 85° 123° (ESE) 10:10:40 437.485
RS-15 29 Aug 10:05:50 10:18:13 68° 50° (NE) 10:30:22 29.354- 29.394
SO-50 29 Aug 10:14:26 10:15:58 12° 253° (WSW) 10:17:29 436.795
Oscar 11 29 Aug 10:19:39 10:23:56 62° 100° (E) 10:28:13 145.826/435.025
ISS 29 Aug 10:19:40 10:22:38 30° 339° (NNW) 10:25:37 145.825
FUNcube-1 29 Aug 10:29:42 10:33:51 74° 101° (E) 10:37:58 145.935
UNISAT 6 29 Aug 10:31:23 10:35:58 71° 75° (ENE) 10:40:27 437.425
SEEDS 29 Aug 10:31:42 10:34:57 22° 293° (WNW) 10:38:13 437.485
PCSat 29 Aug 10:35:30 10:36:54 11° 101° (ESE) 10:38:18 145.827
DANDE 29 Aug 10:39:09 10:44:10 35° 75° (ENE) 10:50:29 436.750
UWE-3 29 Aug 10:42:03 10:46:04 46° 288° (WNW) 10:50:02 435.000/436.395/437.385
QB50P1 29 Aug 10:44:14 10:46:39 15° 63° (ENE) 10:49:04 145.935-145.965
DELFI C3 29 Aug 10:44:55 10:48:50 48° 100° (E) 10:52:43 145.870
CINEMA 3 29 Aug 10:45:23 10:46:37 11° 301° (WNW) 10:47:51 145.822/145.860
CUBEBUG 2 29 Aug 10:48:44 10:52:19 27° 292° (WNW) 10:55:50 437.445
ZACube-1 29 Aug 10:52:20 10:56:25 56° 286° (WNW) 11:00:27 437.345
Cosmos 2499 29 Aug 10:52:47 10:55:30 12° 76° (ENE) 10:58:10 435.465 / 435.565
POPSAT HIP 1 29 Aug 10:53:49 10:56:46 18° 65° (ENE) 10:59:42 437.405
AAUSAT CUBESAT 2 29 Aug 10:57:36 11:00:43 21° 293° (WNW) 11:03:50 437.432
GONETS M04 29 Aug 11:00:16 11:06:29 22° 78° (ENE) 11:12:44
CUSAT 1 29 Aug 11:06:50 11:13:22 68° 263° (W) 11:21:05 437.405
COMPASS 1 29 Aug 11:08:23 11:10:29 14° 297° (WNW) 11:12:35 437.405
ANTELSAT 29 Aug 11:08:29 11:12:55 48° 261° (W) 11:17:18 437.575/2403.000
DUCHIFAT 1 29 Aug 11:18:24 11:22:04 29° 68° (ENE) 11:25:44 145.980
HUMSAT D 29 Aug 11:22:10 11:26:14 61° 101° (E) 11:30:16 437.325/437.525
QB50P2 29 Aug 11:23:28 11:27:27 39° 71° (ENE) 11:31:27 145.880/145.840
POLYITAN 1 29 Aug 11:25:58 11:29:58 39° 71° (ENE) 11:33:58 437.675
BEESAT 2 29 Aug 11:26:44 11:30:10 27° 313° (NW) 11:33:38 435.950
NANOSAT C BR1 29 Aug 11:32:43 11:36:45 43° 72° (ENE) 11:40:49 145.865
HO-68 29 Aug 11:33:09 11:37:26 17° 308° (NW) 11:41:42 435.675
TIGRISAT 29 Aug 11:39:42 11:43:29 25° 265° (W) 11:47:14 435.000
BEESAT 3 29 Aug 11:42:57 11:44:56 13° 322° (NW) 11:46:56 437.485
CUBEBUG 1 29 Aug 11:43:51 11:45:11 11° 89° (E) 11:46:30 437.445
Oscar 11 29 Aug 11:57:24 11:59:35 14° 298° (WNW) 12:01:44 145.826/435.025
ISS 29 Aug 11:57:29 11:59:51 18° 359° (N) 12:02:12 145.825
JAS-2 29 Aug 12:02:36 12:07:36 47° 69° (ENE) 12:12:58 435.910
BUGSAT 1 29 Aug 12:05:17 12:09:16 40° 71° (ENE) 12:13:15 437.445
FUNcube-1 29 Aug 12:08:33 12:09:29 11° 299° (WNW) 12:10:26 145.935
UNISAT 6 29 Aug 12:11:24 12:13:07 12° 271° (W) 12:14:49 437.425
PCSat 29 Aug 12:13:58 12:19:23 82° 117° (ESE) 12:24:50 145.827
AIST 2 29 Aug 12:15:51 12:19:46 45° 118° (ESE) 12:23:44 435.215
QB50P1 29 Aug 12:17:47 12:21:59 55° 260° (W) 12:26:11 145.935-145.965
RS-15 29 Aug 12:19:03 12:30:04 41° 253° (WSW) 12:40:54 29.354- 29.394
DELFI C3 29 Aug 12:21:01 12:23:16 15° 296° (WNW) 12:25:31 145.870
DANDE 29 Aug 12:21:41 12:26:55 40° 265° (W) 12:33:30 436.750
POPSAT HIP 1 29 Aug 12:28:09 12:32:13 43° 261° (W) 12:36:19 437.405
AO-85 29 Aug 12:31:40 12:33:31 12° 32° (NNE) 12:35:17 145.980
ESTCUBE 1 29 Aug 12:33:09 12:37:39 59° 101° (E) 12:42:07 437.505/2401.250
UKube-1 29 Aug 12:33:09 12:35:50 16° 92° (E) 12:38:30 .
AISAT 29 Aug 12:33:43 12:37:46 33° 97° (E) 12:41:46 437.250
50 SAT 29 Aug 12:37:07 12:40:25 31° 97° (E) 12:43:43 437.505
Cosmos 2499 29 Aug 12:39:16 12:47:20 72° 94° (E) 12:54:49 435.465 / 435.565
AUBIESAT-1 29 Aug 12:46:38 12:50:41 82° 110° (ESE) 12:54:24 437.475
CUSAT 1 29 Aug 12:52:09 12:54:35 12° 278° (W) 12:57:08 437.405
GONETS M04 29 Aug 12:53:28 13:02:14 80° 279° (W) 13:11:07
M-CUBED/EXP-1 PRIME 29 Aug 12:54:04 12:58:10 66° 291° (WNW) 13:01:55 437.505
DUCHIFAT 1 29 Aug 12:54:10 12:57:43 26° 265° (W) 13:01:18 145.980
HUMSAT D 29 Aug 12:59:38 13:01:21 12° 298° (WNW) 13:03:04 437.325/437.525
QB50P2 29 Aug 13:00:20 13:03:23 19° 267° (W) 13:06:28 145.880/145.840
POLYITAN 1 29 Aug 13:02:53 13:05:54 19° 267° (W) 13:08:58 437.675
AO-7 29 Aug 13:07:16 13:07:38 10° 37° (NE) 13:08:00 29.400- 29.500
NANOSAT C BR1 29 Aug 13:09:54 13:12:42 17° 268° (W) 13:15:30 145.865
CUBEBUG 1 29 Aug 13:17:31 13:21:57 71° 286° (WNW) 13:26:20 437.445
Gurwin Techsat 1B 29 Aug 13:19:26 13:23:38 25° 63° (ENE) 13:27:52 435.225
VELOX 1 29 Aug 13:20:34 13:25:04 83° 283° (WNW) 13:29:30 145.980
SPROUT 29 Aug 13:25:53 13:30:08 60° 101° (E) 13:34:20 437.525
DX 1 29 Aug 13:31:08 13:35:34 87° 107° (ESE) 13:39:56 434.975-435.025
Oscar 19 29 Aug 13:31:25 13:36:30 63° 72° (ENE) 13:41:38 437.125/150
ISS 29 Aug 13:34:09 13:37:04 28° 19° (NNE) 13:39:59 145.825
TISAT 1 29 Aug 13:38:44 13:41:34 17° 93° (E) 13:44:22 437.305
BUGSAT 1 29 Aug 13:41:49 13:44:48 18° 267° (W) 13:47:47 437.445
JAS-2 29 Aug 13:49:05 13:53:04 22° 269° (W) 13:57:16 435.910
AIST 2 29 Aug 13:55:14 13:58:27 22° 317° (NW) 14:01:43 435.215
PCSat 29 Aug 13:59:35 14:03:27 19° 319° (NW) 14:07:21 145.827
O/OREOS (USA 219) 29 Aug 14:04:36 14:09:02 64° 110° (ESE) 14:13:32 437.305
UKube-1 29 Aug 14:07:57 14:12:09 48° 289° (WNW) 14:16:18 .
AISAT 29 Aug 14:10:26 14:14:05 25° 294° (WNW) 14:17:42 437.250
AO-85 29 Aug 14:10:33 14:14:52 71° 55° (NE) 14:18:50 145.980
ESTCUBE 1 29 Aug 14:11:17 14:13:58 16° 298° (WNW) 14:16:39 437.505/2401.250
50 SAT 29 Aug 14:11:18 14:13:46 18° 293° (WNW) 14:16:15 437.505
AUBIESAT-1 29 Aug 14:23:52 14:24:24 10° 307° (NW) 14:24:56 437.475
BEESAT 29 Aug 14:25:44 14:27:13 11° 89° (E) 14:28:41 436.000
Cosmos 2499 29 Aug 14:34:59 14:41:04 23° 293° (WNW) 14:46:53 435.465 / 435.565
ITAMSAT 1 29 Aug 14:50:09 14:55:07 49° 70° (ENE) 15:00:06 435.822/435.867
AO-7 29 Aug 14:50:31 14:58:08 41° 60° (ENE) 15:05:44 29.400- 29.500
GONETS M04 29 Aug 14:55:08 15:00:38 18° 302° (WNW) 15:06:13
Gurwin Techsat 1B 29 Aug 14:58:11 15:03:17 47° 261° (W) 15:08:26 435.225
SPROUT 29 Aug 15:03:22 15:05:34 14° 298° (WNW) 15:07:46 437.525
DX 1 29 Aug 15:10:08 15:11:03 11° 301° (WNW) 15:11:57 434.975-435.025
ISS 29 Aug 15:10:29 15:13:43 56° 218° (SW) 15:16:56 145.825
ITUPSAT 1 29 Aug 15:12:13 15:16:33 33° 97° (E) 15:20:52 437.325
Oscar 19 29 Aug 15:13:00 15:16:15 17° 269° (W) 15:19:32 437.125/150
TISAT 1 29 Aug 15:13:26 15:17:24 41° 289° (WNW) 15:21:19 437.305
SWISSCUBE 29 Aug 15:43:51 15:48:39 79° 102° (ESE) 15:53:25 437.505
O/OREOS (USA 219) 29 Aug 15:46:10 15:48:55 16° 309° (NW) 15:51:41 437.305
AO-85 29 Aug 15:53:32 15:54:33 11° 254° (WSW) 15:55:33 145.980
MOZHAYETS 4 29 Aug 15:56:54 15:59:36 15° 91° (E) 16:02:18
HORYU 2 29 Aug 15:59:04 16:00:37 12° 60° (ENE) 16:02:11 437.375
BEESAT 29 Aug 16:00:47 16:05:34 79° 285° (WNW) 16:10:19 436.000
ITAMSAT 1 29 Aug 16:30:54 16:34:50 22° 267° (W) 16:38:47 435.822/435.867
Cosmos 2491 29 Aug 16:40:17 16:43:15 12° 72° (ENE) 16:46:14 435.465 / 435.565
AO-7 29 Aug 16:42:42 16:50:44 50° 259° (W) 16:58:48 29.400- 29.500
BEESAT 3 29 Aug 16:43:49 16:44:36 10° 35° (NE) 16:45:23 437.485
ITUPSAT 1 29 Aug 16:50:14 16:54:16 28° 294° (WNW) 16:58:18 437.325
YUBILEINY 29 Aug 16:51:01 16:58:55 36° 69° (ENE) 17:06:43 435.215
NOAA 18 29 Aug 17:06:43 17:09:24 14° 56° (NE) 17:12:06 137.9125
BRITE-PL 29 Aug 17:08:01 17:12:04 26° 64° (ENE) 17:16:24 437.365/2234.400
KKS-1 29 Aug 17:11:11 17:15:39 67° 102° (ESE) 17:20:04 437.445
CUBESAT XI-V 29 Aug 17:22:31 17:25:27 16° 91° (E) 17:28:22 437.345
SWISSCUBE 29 Aug 17:23:36 17:25:48 13° 301° (WNW) 17:28:00 437.505
HORYU 2 29 Aug 17:32:04 17:36:32 80° 255° (WSW) 17:41:01 437.375
MOZHAYETS 4 29 Aug 17:32:37 17:37:06 55° 287° (WNW) 17:41:34
Cubesat XI-IV 29 Aug 17:35:26 17:39:38 24° 63° (ENE) 17:43:51 437.490
Cosmos 2504 29 Aug 17:39:49 17:45:17 22° 65° (ENE) 17:50:40 435.465 / 435.565
NOAA 15 29 Aug 17:40:07 17:44:47 33° 66° (ENE) 17:49:28 137.62
STARS 29 Aug 17:41:10 17:45:34 69° 102° (ESE) 17:49:55 437.465
BEESAT 29 Aug 17:42:16 17:42:31 10° 303° (WNW) 17:42:46 436.000
CUTE-I 29 Aug 17:46:08 17:50:42 30° 65° (ENE) 17:55:17 437.470
BEESAT 2 29 Aug 18:05:43 18:09:11 27° 47° (NE) 18:12:38 435.950
DOVE 4 29 Aug 18:06:51 18:10:46 22° 63° (ENE) 18:14:43 437.250
GOMX 1 29 Aug 18:10:00 18:14:54 45° 70° (ENE) 18:20:03 467.674
BEESAT 3 29 Aug 18:19:06 18:23:04 65° 55° (NE) 18:26:59 437.485
LilacSat-2 29 Aug 18:20:42 18:24:25 50° 74° (ENE) 18:28:09 437.200
HO-68 29 Aug 18:28:19 18:32:56 19° 53° (NE) 18:37:34 435.675
Cosmos 2491 29 Aug 18:29:40 18:38:16 67° 92° (E) 18:46:56 435.465 / 435.565
CINEMA 3 29 Aug 18:34:15 18:35:44 11° 59° (ENE) 18:37:13 145.822/145.860
NOAA 18 29 Aug 18:43:42 18:49:14 86° 77° (ENE) 18:54:49 137.9125
BRITE-PL 29 Aug 18:45:36 18:50:15 42° 264° (W) 18:55:19 437.365/2234.400
YUBILEINY 29 Aug 18:47:37 18:56:01 53° 270° (W) 19:04:22 435.215
KKS-1 29 Aug 18:49:26 18:51:40 14° 299° (WNW) 18:53:53 437.445
CUBESAT XI-V 29 Aug 18:58:33 19:03:10 55° 287° (WNW) 19:07:45 437.345
Cubesat XI-IV 29 Aug 19:14:16 19:19:25 48° 261° (W) 19:24:34 437.490
PCSat 29 Aug 19:18:46 19:22:07 16° 38° (NE) 19:25:28 145.827
STARS 29 Aug 19:19:19 19:21:21 13° 299° (WNW) 19:23:22 437.465
NOAA 15 29 Aug 19:19:49 19:24:31 33° 264° (W) 19:29:15 137.62
CUTE-I 29 Aug 19:25:41 19:30:37 37° 262° (W) 19:35:33 437.470
Cosmos 2504 29 Aug 19:32:11 19:39:21 68° 266° (W) 19:46:27 435.465 / 435.565
STRAND 1 29 Aug 19:35:40 19:39:26 21° 93° (E) 19:43:12 437.568
DOVE 4 29 Aug 19:42:55 19:48:00 55° 261° (W) 19:53:14 437.250
BEESAT 2 29 Aug 19:43:27 19:47:01 31° 245° (WSW) 19:50:33 435.950
SEEDS 29 Aug 19:48:22 19:51:50 26° 68° (ENE) 19:55:20 437.485
GOMX 1 29 Aug 19:48:59 19:53:09 25° 268° (W) 19:57:32 467.674
AIST 1 29 Aug 19:51:11 19:54:40 22° 72° (ENE) 19:58:08
LilacSat-2 29 Aug 19:57:32 19:59:01 12° 270° (W) 20:00:29 437.200
BEESAT 3 29 Aug 19:58:44 20:00:11 12° 251° (WSW) 20:01:38 437.485
UWE-3 29 Aug 20:04:50 20:07:36 16° 64° (ENE) 20:10:20 435.000/436.395/437.385
CINEMA 3 29 Aug 20:07:03 20:12:05 82° 75° (ENE) 20:17:03 145.822/145.860
CUBEBUG 2 29 Aug 20:10:46 20:14:41 27° 68° (ENE) 20:18:29 437.445
HO-68 29 Aug 20:12:27 20:19:38 85° 74° (ENE) 20:26:53 435.675
AAUSAT CUBESAT 2 29 Aug 20:12:53 20:16:18 26° 69° (ENE) 20:19:47 437.432
CANX-2 29 Aug 20:13:47 20:17:59 83° 76° (ENE) 20:22:12 2200.000
ZACube-1 29 Aug 20:14:59 20:17:01 13° 62° (ENE) 20:19:02 437.345
CUTE 1.7 + AOD 2 29 Aug 20:19:25 20:23:37 83° 76° (ENE) 20:27:50 437.475
COMPASS 1 29 Aug 20:22:43 20:26:37 42° 72° (ENE) 20:30:32 437.405
NOAA 18 29 Aug 20:28:10 20:30:34 13° 271° (W) 20:33:01 137.9125
Cosmos 2491 29 Aug 20:28:34 20:35:48 28° 294° (WNW) 20:43:08 435.465 / 435.565
AIST 2 29 Aug 20:36:10 20:40:09 41° 50° (NE) 20:44:08 435.215
PRISM 29 Aug 20:52:42 20:54:07 11° 90° (E) 20:55:32 437.425
PCSat 29 Aug 21:00:58 21:06:26 79° 60° (ENE) 21:11:50 145.827
GONETS M04 29 Aug 21:09:39 21:12:08 11° 51° (NE) 21:14:38
STRAND 1 29 Aug 21:13:57 21:18:53 50° 289° (WNW) 21:23:47 437.568
Oscar 11 29 Aug 21:15:01 21:19:11 52° 73° (ENE) 21:23:23 145.826/435.025
SEEDS 29 Aug 21:23:56 21:27:28 27° 265° (W) 21:31:02 437.485
FUNcube-1 29 Aug 21:25:32 21:29:54 64° 75° (ENE) 21:34:12 145.935
AIST 1 29 Aug 21:28:23 21:32:20 32° 269° (W) 21:36:13
DELFI C3 29 Aug 21:31:43 21:35:11 31° 70° (ENE) 21:38:42 145.870
UWE-3 29 Aug 21:39:10 21:43:39 55° 260° (W) 21:48:02 435.000/436.395/437.385
CUBEBUG 2 29 Aug 21:47:00 21:51:10 32° 264° (W) 21:55:17 437.445
CINEMA 3 29 Aug 21:47:53 21:49:45 12° 272° (W) 21:51:36 145.822/145.860
AAUSAT CUBESAT 2 29 Aug 21:48:17 21:51:43 26° 265° (W) 21:55:13 437.432
ZACube-1 29 Aug 21:48:21 21:52:47 68° 258° (WSW) 21:57:08 437.345
COMPASS 1 29 Aug 21:59:47 22:02:23 16° 268° (W) 22:04:59 437.405
AUBIESAT-1 29 Aug 22:00:13 22:02:54 15° 57° (ENE) 22:05:34 437.475
HO-68 29 Aug 22:03:33 22:08:11 18° 270° (W) 22:12:51 435.675
M-CUBED/EXP-1 PRIME 29 Aug 22:07:01 22:10:33 21° 59° (ENE) 22:14:04 437.505
HUMSAT D 29 Aug 22:14:03 22:18:02 47° 72° (ENE) 22:21:59 437.325/437.525
AIST 2 29 Aug 22:15:13 22:18:23 21° 248° (WSW) 22:21:33 435.215
UNISAT 6 29 Aug 22:24:05 22:25:59 13° 90° (E) 22:27:52 437.425
PRISM 29 Aug 22:25:41 22:29:50 63° 286° (WNW) 22:33:58 437.425
Cosmos 2499 29 Aug 22:29:55 22:35:25 24° 67° (ENE) 22:40:56 435.465 / 435.565
O/OREOS (USA 219) 29 Aug 22:35:15 22:38:25 18° 53° (NE) 22:41:34 437.305
CUBEBUG 1 29 Aug 22:41:03 22:42:39 12° 60° (ENE) 22:44:16 437.445
VELOX 1 29 Aug 22:45:44 22:47:01 11° 59° (ENE) 22:48:18 145.980
PCSat 29 Aug 22:46:11 22:49:06 15° 257° (WSW) 22:52:02 145.827
SO-50 29 Aug 22:47:15 22:50:56 22° 112° (ESE) 22:54:37 436.795
Oscar 11 29 Aug 22:53:16 22:55:38 14° 269° (W) 22:58:01 145.826/435.025
ANTELSAT 29 Aug 22:59:25 23:03:13 30° 96° (E) 23:06:58 437.575/2403.000
GONETS M04 29 Aug 23:02:41 23:11:23 55° 76° (ENE) 23:20:00
FUNcube-1 29 Aug 23:04:46 23:06:32 12° 270° (W) 23:08:18 145.935
DELFI C3 29 Aug 23:07:09 23:10:05 20° 266° (W) 23:13:03 145.870
50 SAT 29 Aug 23:15:59 23:18:21 17° 66° (ENE) 23:20:44 437.505
UKube-1 29 Aug 23:28:51 23:31:33 16° 63° (ENE) 23:34:16 .
TIGRISAT 29 Aug 23:29:20 23:33:36 62° 102° (ESE) 23:37:47 435.000
AISAT 29 Aug 23:31:48 23:35:48 33° 69° (ENE) 23:39:49 437.250
AUBIESAT-1 29 Aug 23:32:11 23:36:48 72° 253° (WSW) 23:41:25 437.475
ESTCUBE 1 29 Aug 23:33:18 23:37:42 59° 73° (ENE) 23:42:09 437.505/2401.250
M-CUBED/EXP-1 PRIME 29 Aug 23:40:09 23:44:42 50° 256° (WSW) 23:49:16 437.505
HUMSAT D 29 Aug 23:51:32 23:53:54 15° 269° (W) 23:56:16 437.325/437.525
DANDE 29 Aug 23:52:53 23:54:29 15° 88° (E) 23:56:09 436.750
UNISAT 6 29 Aug 23:58:53 00:03:06 58° 287° (WNW) 00:07:16 437.425
QB50P1 30 Aug 00:02:10 00:05:25 21° 94° (E) 00:08:38 145.935-145.965
POPSAT HIP 1 30 Aug 00:12:10 00:15:46 27° 96° (E) 00:19:19 437.405
CUSAT 1 30 Aug 00:12:53 00:15:53 48° 285° (WNW) 00:19:41 437.405
O/OREOS (USA 219) 30 Aug 00:13:41 00:18:12 56° 251° (WSW) 00:22:41 437.305
CUBEBUG 1 30 Aug 00:13:53 00:18:17 78° 257° (WSW) 00:22:45 437.445
VELOX 1 30 Aug 00:18:20 00:22:47 85° 254° (WSW) 00:27:17 145.980
SPROUT 30 Aug 00:19:57 00:24:07 50° 73° (ENE) 00:28:19 437.525
Cosmos 2499 30 Aug 00:22:08 00:29:05 63° 267° (W) 00:36:09 435.465 / 435.565
SO-50 30 Aug 00:26:22 00:31:06 51° 309° (NW) 00:35:48 436.795
DX 1 30 Aug 00:27:08 00:31:30 83° 78° (ENE) 00:35:56 434.975-435.025
RS-15 30 Aug 00:31:16 00:41:15 37° 105° (ESE) 00:51:40 29.354- 29.394
TISAT 1 30 Aug 00:31:39 00:34:17 16° 63° (ENE) 00:36:54 437.305
ANTELSAT 30 Aug 00:36:21 00:39:49 24° 293° (WNW) 00:43:14 437.575/2403.000
DUCHIFAT 1 30 Aug 00:36:33 00:40:35 44° 99° (E) 00:44:34 145.980
QB50P2 30 Aug 00:42:48 00:47:00 64° 101° (E) 00:51:10 145.880/145.840
POLYITAN 1 30 Aug 00:45:18 00:49:31 65° 101° (E) 00:53:40 437.675
50 SAT 30 Aug 00:48:29 00:51:41 31° 262° (W) 00:54:56 437.505
NANOSAT C BR1 30 Aug 00:51:31 00:55:44 72° 102° (ESE) 00:59:54 145.865
JAS-2 30 Aug 00:53:24 01:00:04 46° 98° (E) 01:07:19 435.910
GONETS M04 30 Aug 01:00:07 01:07:46 34° 276° (W) 01:15:23
UKube-1 30 Aug 01:02:59 01:07:11 51° 260° (W) 01:11:26 .
TIGRISAT 30 Aug 01:07:44 01:09:46 13° 298° (WNW) 01:11:47 435.000
AISAT 30 Aug 01:08:40 01:12:18 24° 265° (W) 01:15:58 437.250
PHONESAT 2.4 30 Aug 01:11:36 01:13:43 18° 155° (SSE) 01:15:50 2401.200-2431.200
ESTCUBE 1 30 Aug 01:12:37 01:14:54 14° 270° (W) 01:17:12 437.505/2401.250
SWISSCUBE 30 Aug 01:16:39 01:18:40 13° 59° (ENE) 01:20:41 437.505
BUGSAT 1 30 Aug 01:21:14 01:25:20 60° 101° (ESE) 01:29:20 437.445
BEESAT 30 Aug 01:32:27 01:35:22 16° 61° (ENE) 01:38:16 436.000
DANDE 30 Aug 01:35:43 01:37:09 13° 293° (WNW) 01:38:42 436.750
QB50P1 30 Aug 01:37:27 01:41:16 33° 290° (WNW) 01:45:02 145.935-145.965
Oscar 19 30 Aug 01:42:52 01:46:41 20° 92° (E) 01:50:30 437.125/150
POPSAT HIP 1 30 Aug 01:47:56 01:51:29 27° 292° (WNW) 01:55:02 437.405
SPROUT 30 Aug 01:57:50 02:00:21 15° 269° (W) 02:02:52 437.525
TISAT 1 30 Aug 02:05:24 02:09:32 50° 260° (W) 02:13:41 437.305
SO-50 30 Aug 02:10:58 02:12:41 12° 330° (NNW) 02:14:24 436.795
DUCHIFAT 1 30 Aug 02:13:11 02:15:55 17° 296° (WNW) 02:18:40 145.980
QB50P2 30 Aug 02:20:24 02:22:17 13° 298° (WNW) 02:24:08 145.880/145.840
POLYITAN 1 30 Aug 02:22:58 02:24:46 13° 298° (WNW) 02:26:35 437.675
